SITRO-AIS 8 (ANOKHIN)

Last updated on Sun Jun 21 2026 00:03:50 GMT+0000 (Coordinated Universal Time)

1 57193U 23091AD 26171.41797191 .00012039 00000+0 38868-3 0 9996 2 57193 97.5051 236.9502 0011710 90.0365 270.2218 15.32211056164946
UTC large
Height (km)
Speed (km/s)
/
Latitude / Longitude
Inclination (degrees)
Orbital Period (minutes)
Azimuth
Elevation
Range (km)
Doppler Factor

Next 0 passes for location: London (51.5072 / 0.1276)

No passes found over London.
SITRO-AIS 8 (ANOKHIN)